FW7384 Weather Reports


Display with metric or nautical units.
time (UTC)temp
F
wind
direction
speed
MPH
gust
MPH
rain 1hr
in
rain 24hr
in
rain mn
in
humidity
%
barometer
mb
20260902211003 52 186 4.0 13.0 0.00 0.00 0.00 89 1011.6
20260902210503 52 216 3.0 7.0 0.00 0.00 0.00 89 1011.6
20260902210003 52 204 4.0 10.0 0.00 0.00 0.00 90 1011.6
20260902205503 52 194 4.0 10.0 0.00 0.00 0.00 89 1011.8
20260902205214 52 205 3.0 10.0 0.00 0.00 0.00 90 1011.6
20260902204503 52 217 3.0 7.0 0.00 0.00 0.00 90 1011.9
20260902204003 52 207 3.0 6.0 0.00 0.00 0.00 91 1011.6
20260902203504 52 197 3.0 6.0 0.00 0.00 0.00 92 1011.9
20260902203003 52 203 2.0 6.0 0.00 0.00 0.00 92 1011.9
20260902202503 52 224 2.0 6.0 0.00 0.00 0.00 92 1012.0
20260902202214 52 222 2.0 6.0 0.00 0.00 0.00 91 1011.9
20260902201504 52 197 3.0 6.0 0.00 0.00 0.00 92 1012.0
20260902201003 52 191 2.0 4.0 0.00 0.00 0.00 92 1011.9
20260902200503 52 205 1.0 4.0 0.00 0.00 0.00 91 1011.9
20260902200213 52 204 1.0 4.0 0.00 0.00 0.00 91 1011.9
20260902195503 52 201 1.0 4.0 0.00 0.00 0.00 90 1011.9
20260902195003 52 204 1.0 4.0 0.00 0.00 0.00 91 1011.8
20260902194503 52 190 1.0 4.0 0.00 0.00 0.00 90 1012.0
20260902194003 52 188 1.0 4.0 0.00 0.00 0.00 90 1011.8
20260902193714 52 191 1.0 4.0 0.00 0.00 0.00 90 1011.9
20260902193213 52 207 0.0 2.0 0.00 0.00 0.00 90 1011.9
20260902192504 52 228 0.0 2.0 0.00 0.00 0.00 89 1011.9
20260902192004 52 206 0.0 2.0 0.00 0.00 0.00 89 1011.9
20260902191504 53 231 0.0 2.0 0.00 0.00 0.00 88 1011.9
20260902191003 53 218 1.0 3.0 0.00 0.00 0.00 87 1011.9
20260902190714 53 206 1.0 3.0 0.00 0.00 0.00 87 1011.9
20260902190213 53 186 1.0 3.0 0.00 0.00 0.00 87 1011.8
20260902185714 54 218 1.0 4.0 0.00 0.00 0.00 85 1011.9
20260902185003 54 208 1.0 4.0 0.00 0.00 0.00 84 1011.8
20260902184503 54 193 1.0 2.0 0.00 0.00 0.00 84 1011.7
20260902184003 54 189 1.0 3.0 0.00 0.00 0.00 83 1011.9
20260902183504 54 210 1.0 3.0 0.00 0.00 0.00 82 1012.0
20260902183003 55 213 1.0 3.0 0.00 0.00 0.00 82 1011.8
20260902182503 55 227 1.0 4.0 0.00 0.00 0.00 81 1011.7
20260902182004 55 240 1.0 4.0 0.00 0.00 0.00 81 1012.0
20260902181504 56 227 1.0 4.0 0.00 0.00 0.00 80 1011.8
20260902181003 56 231 2.0 4.0 0.00 0.00 0.00 79 1011.8
20260902180714 56 237 1.0 4.0 0.00 0.00 0.00 79 1012.0
20260902180006 56 257 1.0 4.0 0.00 0.00 0.00 80 1011.5
20260902175714 56 247 1.0 4.0 0.00 0.00 0.00 79 1011.8
20260902175003 57 220 1.0 4.0 0.00 0.00 0.00 78 1011.5
20260902174503 57 213 2.0 7.0 0.00 0.00 0.00 78 1011.6
20260902174212 57 222 2.0 7.0 0.00 0.00 0.00 77 1011.8
20260902173504 58 244 2.0 5.0 0.00 0.00 0.00 78 1011.6
20260902173004 58 221 2.0 5.0 0.00 0.00 0.00 78 1011.5
20260902172713 58 251 2.0 5.0 0.00 0.00 0.00 77 1011.5
20260902172214 58 249 2.0 5.0 0.00 0.00 0.00 77 1011.4
20260902171503 59 253 2.0 5.0 0.00 0.00 0.00 78 1011.7
20260902171003 59 235 2.0 5.0 0.00 0.00 0.00 77 1011.4
20260902170503 59 225 2.0 7.0 0.00 0.00 0.00 78 1011.4
20260902170004 59 222 2.0 7.0 0.00 0.00 0.00 80 1011.4
20260902165503 60 227 3.0 7.0 0.00 0.00 0.00 81 1011.5
20260902165214 59 221 3.0 7.0 0.00 0.00 0.00 81 1011.3
20260902164503 60 233 3.0 10.0 0.00 0.00 0.00 80 1011.3
20260902164003 60 220 4.0 10.0 0.00 0.00 0.00 81 1011.5
20260902163503 60 205 5.0 10.0 0.00 0.00 0.00 80 1011.2
20260902163214 60 212 4.0 9.0 0.00 0.00 0.00 80 1011.3
20260902162713 60 213 4.0 9.0 0.00 0.00 0.00 82 1011.4
20260902162214 60 223 3.0 8.0 0.00 0.00 0.00 81 1011.2
20260902161504 60 233 3.0 8.0 0.00 0.00 0.00 80 1011.3
20260902161003 60 228 3.0 8.0 0.00 0.00 0.00 82 1011.3
20260902160504 60 232 3.0 6.0 0.00 0.00 0.00 82 1011.3
20260902160004 60 232 3.0 11.0 0.00 0.00 0.00 84 1011.4
20260902155503 60 235 3.0 11.0 0.00 0.00 0.00 83 1011.4
20260902155004 60 232 3.0 11.0 0.00 0.00 0.00 83 1011.3
20260902154713 60 233 3.0 9.0 0.00 0.00 0.00 82 1011.4
20260902154003 61 224 4.0 9.0 0.00 0.00 0.00 81 1011.5
20260902153503 61 232 4.0 9.0 0.00 0.00 0.00 80 1011.5
20260902153003 60 228 3.0 9.0 0.00 0.00 0.00 81 1011.3
20260902152503 60 211 3.0 8.0 0.00 0.00 0.00 82 1011.4
20260902152003 60 224 4.0 9.0 0.00 0.00 0.00 82 1011.4
20260902151713 60 229 4.0 9.0 0.00 0.00 0.00 82 1011.4
20260902151004 60 211 4.0 9.0 0.00 0.00 0.00 82 1011.6
20260902150504 60 218 3.0 9.0 0.00 0.00 0.00 82 1011.4
20260902150214 60 222 3.0 9.0 0.00 0.00 0.00 83 1011.6
20260902145712 60 228 3.0 7.0 0.00 0.00 0.00 84 1011.6
20260902145004 60 217 3.0 8.0 0.00 0.00 0.00 85 1011.6
20260902144503 60 209 3.0 8.0 0.00 0.00 0.00 86 1011.6
20260902144213 60 215 2.0 5.0 0.00 0.00 0.00 87 1011.6
20260902143504 60 223 2.0 6.0 0.00 0.00 0.00 87 1011.4
20260902143004 60 232 2.0 6.0 0.00 0.00 0.00 86 1011.6
20260902142504 60 235 3.0 6.0 0.00 0.00 0.00 85 1011.6
20260902142003 60 238 3.0 6.0 0.00 0.00 0.00 84 1011.7
20260902141503 60 244 2.0 6.0 0.00 0.00 0.00 83 1011.6
20260902141213 60 225 3.0 8.0 0.00 0.00 0.00 83 1011.7
20260902140504 61 213 5.0 13.0 0.00 0.00 0.00 82 1011.7
20260902140213 61 216 5.0 13.0 0.00 0.00 0.00 80 1011.6
20260902135503 62 203 4.0 13.0 0.00 0.00 0.00 77 1011.5
20260902135003 61 224 2.0 5.0 0.00 0.00 0.00 81 1011.5
20260902134714 61 235 2.0 6.0 0.00 0.00 0.00 81 1011.6
20260902134003 61 222 2.0 7.0 0.00 0.00 0.00 82 1011.7
20260902133503 60 229 2.0 7.0 0.00 0.00 0.00 82 1011.6
20260902133213 60 226 3.0 7.0 0.00 0.00 0.00 82 1011.7
20260902132714 60 243 3.0 8.0 0.00 0.00 0.00 84 1011.7
20260902132003 61 261 2.0 8.0 0.00 0.00 0.00 82 1011.8
20260902131503 61 229 3.0 7.0 0.00 0.00 0.00 81 1011.7
20260902131003 61 238 3.0 7.0 0.00 0.00 0.00 80 1011.8
20260902130714 62 249 3.0 7.0 0.00 0.00 0.00 80 1011.8
20260902130213 62 246 3.0 7.0 0.00 0.00 0.00 80 1011.7
20260902125504 63 245 3.0 7.0 0.00 0.00 0.00 78 1011.8
20260902125003 63 235 3.0 9.0 0.00 0.00 0.00 78 1011.7
20260902124504 63 229 3.0 9.0 0.00 0.00 0.00 79 1011.8
20260902124003 62 242 3.0 9.0 0.00 0.00 0.00 78 1011.8
20260902123503 62 230 3.0 7.0 0.00 0.00 0.00 76 1011.8
20260902123004 62 224 3.0 8.0 0.00 0.00 0.00 75 1011.7
20260902122503 63 234 3.0 8.0 0.00 0.00 0.00 74 1011.7
20260902122003 62 235 3.0 11.0 0.00 0.00 0.00 76 1011.8
20260902121503 62 226 4.0 11.0 0.00 0.00 0.00 75 1011.6
20260902121212 62 217 4.0 11.0 0.00 0.00 0.00 75 1011.9
20260902120503 63 206 3.0 8.0 0.00 0.00 0.00 73 1011.9
20260902120003 62 219 3.0 8.0 0.00 0.00 0.00 74 1011.7
20260902115504 62 234 3.0 7.0 0.00 0.00 0.00 75 1012.0
20260902115214 63 231 3.0 7.0 0.00 0.00 0.00 75 1011.9
20260902114503 63 231 3.0 7.0 0.00 0.00 0.00 75 1011.9
20260902114214 62 225 3.0 7.0 0.00 0.00 0.00 75 1011.9
20260902113503 61 243 3.0 7.0 0.00 0.00 0.00 77 1011.9
20260902113003 62 223 3.0 6.0 0.00 0.00 0.00 76 1011.9
20260902112503 62 214 3.0 7.0 0.00 0.00 0.00 77 1011.9
20260902112003 61 225 3.0 7.0 0.00 0.00 0.00 78 1012.0
20260902111503 62 223 3.0 7.0 0.00 0.00 0.00 78 1012.1
20260902111003 62 221 3.0 7.0 0.00 0.00 0.00 78 1012.0
20260902110503 62 224 3.0 6.0 0.00 0.00 0.00 78 1011.9
20260902110005 62 212 3.0 7.0 0.00 0.00 0.00 78 1012.0
20260902105504 62 214 3.0 7.0 0.00 0.00 0.00 78 1012.0
20260902105214 61 221 3.0 7.0 0.00 0.00 0.00 77 1012.1
20260902104504 62 233 3.0 6.0 0.00 0.00 0.00 76 1012.1
20260902104004 64 256 2.0 9.0 0.00 0.00 0.00 73 1012.1
20260902103713 65 240 3.0 12.0 0.00 0.00 0.00 75 1012.0
20260902103003 62 215 5.0 12.0 0.00 0.00 0.00 78 1012.2
20260902102503 61 201 5.0 12.0 0.00 0.00 0.00 80 1011.9
20260902102003 60 205 5.0 12.0 0.00 0.00 0.00 81 1011.9
20260902101503 62 206 5.0 12.0 0.00 0.00 0.00 81 1012.1
20260902101003 63 207 5.0 11.0 0.00 0.00 0.00 80 1012.0
20260902100713 62 206 5.0 14.0 0.00 0.00 0.00 82 1011.9
20260902100214 63 209 5.0 14.0 0.00 0.00 0.00 80 1012.0
20260902095503 63 201 5.0 13.0 0.00 0.00 0.00 79 1011.9
20260902095004 63 200 5.0 13.0 0.00 0.00 0.00 79 1011.9
20260902094503 63 216 4.0 9.0 0.00 0.00 0.00 79 1012.1
20260902094214 62 232 4.0 11.0 0.00 0.00 0.00 79 1012.0
20260902093503 62 225 3.0 11.0 0.00 0.00 0.00 82 1012.1
20260902093003 61 215 3.0 10.0 0.00 0.00 0.00 83 1011.8
20260902092504 61 219 3.0 8.0 0.00 0.00 0.00 84 1012.0
20260902092003 61 214 4.0 10.0 0.00 0.00 0.00 85 1011.9
20260902091714 62 197 5.0 10.0 0.00 0.00 0.00 85 1012.0
20260902091213 61 202 5.0 12.0 0.00 0.00 0.00 85 1011.8
20260902090503 61 197 4.0 12.0 0.00 0.00 0.00 87 1012.0
20260902090213 61 192 4.0 11.0 0.00 0.00 0.00 87 1011.9
20260902085503 60 207 4.0 11.0 0.00 0.00 0.00 88 1012.0
20260902085213 60 218 4.0 10.0 0.00 0.00 0.00 88 1011.9
20260902084503 60 203 4.0 9.0 0.00 0.00 0.00 89 1012.1
20260902084003 60 209 4.0 11.0 0.00 0.00 0.00 89 1012.0
20260902083504 60 220 3.0 11.0 0.00 0.00 0.00 88 1011.9
20260902083213 60 224 4.0 11.0 0.00 0.00 0.00 88 1011.8
20260902082503 60 205 5.0 9.0 0.00 0.00 0.00 89 1011.9
20260902082003 59 188 5.0 8.0 0.00 0.00 0.00 91 1011.9
20260902081714 59 194 5.0 9.0 0.00 0.00 0.00 92 1011.7
20260902081003 59 211 4.0 10.0 0.00 0.00 0.00 92 1011.9
20260902080503 58 214 4.0 10.0 0.00 0.00 0.00 92 1012.1
20260902080213 59 214 4.0 8.0 0.00 0.00 0.00 92 1011.8
20260902075504 58 191 4.0 8.0 0.00 0.00 0.00 93 1012.0
20260902075004 58 186 4.0 7.0 0.00 0.00 0.00 93 1012.0
20260902074503 58 203 4.0 9.0 0.00 0.00 0.00 94 1011.9
20260902074213 58 200 4.0 9.0 0.00 0.00 0.00 95 1011.9
20260902073714 58 203 4.0 9.0 0.00 0.00 0.00 96 1012.0
20260902073215 57 194 4.0 6.0 0.00 0.00 0.00 97 1011.8
20260902072714 57 183 4.0 9.0 0.00 0.00 0.00 97 1011.9
20260902072003 57 183 4.0 9.0 0.00 0.00 0.00 97 1012.0
20260902071503 57 194 4.0 8.0 0.00 0.00 0.00 97 1011.8
20260902071004 57 203 3.0 7.0 0.00 0.00 0.00 98 1012.0
20260902070503 56 196 3.0 7.0 0.00 0.00 0.00 98 1012.1
20260902070004 56 198 3.0 7.0 0.00 0.00 0.00 98 1012.0
20260902065503 56 197 3.0 9.0 0.00 0.00 0.00 98 1012.1
20260902065212 56 187 3.0 9.0 0.00 0.00 0.00 98 1012.0
20260902064713 56 184 4.0 9.0 0.00 0.00 0.00 98 1012.1
20260902064004 56 191 4.0 9.0 0.00 0.00 0.00 98 1011.8
20260902063503 56 182 4.0 9.0 0.00 0.00 0.00 98 1012.0
20260902063003 56 178 4.0 9.0 0.00 0.00 0.00 99 1012.1
20260902062503 56 188 4.0 8.0 0.00 0.00 0.00 99 1012.0
20260902062003 56 191 4.0 12.0 0.00 0.00 0.00 99 1011.9
20260902061503 55 191 4.0 12.0 0.00 0.00 0.00 99 1011.9
20260902061004 55 189 3.0 7.0 0.00 0.00 0.00 99 1011.8
20260902060503 55 181 4.0 8.0 0.00 0.00 0.00 99 1011.8
20260902060003 55 183 4.0 8.0 0.00 0.00 0.00 99 1012.0
20260902055503 55 195 4.0 8.0 0.00 0.00 0.00 99 1011.7
20260902055003 54 194 4.0 7.0 0.00 0.00 0.00 99 1011.8
20260902054503 54 176 4.0 8.0 0.00 0.00 0.00 99 1011.9
20260902054004 54 173 4.0 8.0 0.00 0.00 0.00 99 1011.7
20260902053713 54 180 4.0 8.0 0.00 0.00 0.00 99 1011.9
20260902053214 54 191 4.0 9.0 0.00 0.00 0.00 99 1011.7
20260902052504 54 189 3.0 9.0 0.00 0.00 0.00 99 1011.8
20260902052003 54 180 3.0 6.0 0.00 0.00 0.00 99 1011.8
20260902051503 54 182 3.0 6.0 0.00 0.00 0.00 99 1011.7
20260902051003 54 182 3.0 6.0 0.00 0.00 0.00 98 1011.8
20260902050504 53 186 3.0 6.0 0.00 0.00 0.00 98 1011.9
20260902050214 53 190 3.0 6.0 0.00 0.00 0.00 98 1011.9
20260902045503 53 185 3.0 6.0 0.00 0.00 0.00 98 1011.9
20260902045003 53 184 3.0 5.0 0.00 0.00 0.00 98 1011.9
20260902044503 53 176 2.0 5.0 0.00 0.00 0.00 98 1011.8
20260902044214 53 165 2.0 4.0 0.00 0.00 0.00 98 1012.0
20260902043503 53 174 2.0 6.0 0.00 0.00 0.00 98 1011.8
20260902043214 53 179 3.0 6.0 0.00 0.00 0.00 98 1011.8
20260902042503 53 194 2.0 5.0 0.00 0.00 0.00 98 1011.9
20260902042004 53 183 2.0 6.0 0.00 0.00 0.00 98 1011.9
20260902041503 53 172 3.0 6.0 0.00 0.00 0.00 97 1012.1
20260902041003 53 176 3.0 6.0 0.00 0.00 0.00 97 1012.0
20260902040712 52 184 3.0 5.0 0.00 0.00 0.00 97 1012.2
20260902040003 52 184 2.0 5.0 0.00 0.00 0.00 97 1012.0
20260902035503 52 179 2.0 3.0 0.00 0.00 0.00 97 1012.2
20260902035004 52 175 2.0 3.0 0.00 0.00 0.00 97 1012.1
20260902034714 52 173 2.0 3.0 0.00 0.00 0.00 98 1012.1
20260902034213 52 172 2.0 3.0 0.00 0.00 0.00 98 1012.3
20260902033503 52 171 1.0 3.0 0.00 0.00 0.00 98 1012.2
20260902033003 52 162 1.0 3.0 0.00 0.00 0.00 98 1012.2
20260902032714 52 154 1.0 2.0 0.00 0.00 0.00 98 1012.1
20260902032003 52 161 1.0 4.0 0.00 0.00 0.00 98 1012.3
20260902031503 52 163 2.0 4.0 0.00 0.00 0.00 98 1012.3
20260902031003 51 153 1.0 4.0 0.00 0.00 0.00 98 1012.2
20260902030504 51 169 1.0 3.0 0.00 0.00 0.00 97 1012.3
20260902030003 52 181 1.0 3.0 0.00 0.00 0.00 97 1012.3
20260902025714 52 184 1.0 3.0 0.00 0.00 0.00 97 1012.4
20260902025003 52 171 1.0 3.0 0.00 0.00 0.00 97 1012.5
20260902024503 52 173 1.0 3.0 0.00 0.00 0.00 97 1012.6
20260902024003 52 200 1.0 4.0 0.00 0.00 0.00 97 1012.6
20260902023503 52 188 1.0 4.0 0.00 0.00 0.00 97 1012.5
20260902023003 52 181 1.0 4.0 0.00 0.00 0.00 97 1012.3
20260902022503 52 191 1.0 4.0 0.00 0.00 0.00 97 1012.4
20260902022003 52 187 1.0 3.0 0.00 0.00 0.00 96 1012.6
20260902021503 52 176 1.0 3.0 0.00 0.00 0.00 96 1012.4
20260902021003 52 173 1.0 3.0 0.00 0.00 0.00 96 1012.3
20260902020503 52 170 1.0 3.0 0.00 0.00 0.00 96 1012.4
20260902020003 52 171 1.0 4.0 0.00 0.00 0.00 96 1012.3
20260902015503 52 170 2.0 4.0 0.00 0.00 0.00 96 1012.2
20260902015003 53 169 2.0 4.0 0.00 0.00 0.00 95 1012.4
20260902014503 53 183 1.0 4.0 0.00 0.00 0.00 95 1012.4
20260902014003 53 192 1.0 4.0 0.00 0.00 0.00 95 1012.4
20260902013503 53 182 2.0 4.0 0.00 0.00 0.00 95 1012.4
20260902013003 53 183 2.0 3.0 0.00 0.00 0.00 95 1012.5
20260902012503 53 192 1.0 3.0 0.00 0.00 0.00 94 1012.5
20260902012214 53 183 1.0 3.0 0.00 0.00 0.00 94 1012.4
20260902011713 53 180 1.0 2.0 0.00 0.00 0.00 94 1012.5
20260902011003 54 182 1.0 3.0 0.00 0.00 0.00 93 1012.4
20260902010503 54 187 1.0 4.0 0.00 0.00 0.00 93 1012.5
20260902010003 54 184 2.0 4.0 0.00 0.00 0.00 93 1012.4
20260902005504 54 181 1.0 3.0 0.00 0.00 0.00 93 1012.4
20260902005214 54 178 1.0 4.0 0.00 0.00 0.00 93 1012.2
20260902004503 54 202 1.0 5.0 0.00 0.00 0.00 92 1012.4
20260902004003 55 206 2.0 5.0 0.00 0.00 0.00 92 1012.4
20260902003504 55 207 2.0 6.0 0.00 0.00 0.00 92 1012.4
20260902003004 55 198 2.0 6.0 0.00 0.00 0.00 91 1012.4
20260902002713 55 190 1.0 6.0 0.00 0.00 0.00 91 1012.4
20260902002003 55 198 2.0 7.0 0.00 0.00 0.00 91 1012.3
20260902001503 55 182 3.0 7.0 0.00 0.00 0.00 90 1012.3
20260902001214 55 190 3.0 7.0 0.00 0.00 0.00 90 1012.3
20260902000504 55 216 3.0 11.0 0.00 0.00 0.00 90 1012.4
20260902000003 55 219 3.0 11.0 0.00 0.00 0.00 90 1012.4
20260901235713 55 223 2.0 5.0 0.00 0.00 0.00 90 1012.5
20260901235003 56 210 2.0 5.0 0.00 0.00 0.00 90 1012.4
20260901234503 56 216 2.0 6.0 0.00 0.00 0.00 90 1012.5
20260901234004 56 220 2.0 6.0 0.00 0.00 0.00 90 1012.4
20260901233503 56 215 2.0 6.0 0.00 0.00 0.00 89 1012.6
20260901233003 56 224 2.0 5.0 0.00 0.00 0.00 89 1012.7
20260901232503 56 221 3.0 5.0 0.00 0.00 0.00 88 1012.4
20260901232003 56 217 3.0 6.0 0.00 0.00 0.00 89 1012.3
20260901231503 56 218 3.0 6.0 0.00 0.00 0.00 90 1012.4
20260901231214 56 222 2.0 6.0 0.00 0.00 0.00 90 1012.4
20260901230503 56 231 2.0 5.0 0.00 0.00 0.00 92 1012.5
20260901230004 56 223 2.0 5.0 0.00 0.00 0.00 92 1012.6
20260901225503 56 205 2.0 6.0 0.00 0.00 0.00 93 1012.3
20260901225003 56 202 2.0 6.0 0.00 0.00 0.00 94 1012.3
20260901224712 56 205 2.0 6.0 0.00 0.00 0.00 94 1012.4
20260901224213 56 200 3.0 6.0 0.00 0.00 0.00 95 1012.4
20260901223503 56 194 3.0 6.0 0.00 0.00 0.00 95 1012.3
20260901223213 56 193 3.0 6.0 0.00 0.00 0.00 95 1012.3
20260901222714 56 204 3.0 5.0 0.00 0.00 0.00 95 1012.3
20260901222213 56 208 2.0 5.0 0.00 0.00 0.00 95 1012.4
20260901221714 56 204 2.0 4.0 0.00 0.00 0.00 95 1012.3
20260901221003 56 194 3.0 5.0 0.00 0.00 0.00 95 1012.4
20260901220503 56 193 2.0 5.0 0.00 0.00 0.00 95 1012.3
20260901220004 56 186 2.0 4.0 0.00 0.00 0.00 95 1012.2
20260901215503 56 182 2.0 4.0 0.00 0.00 0.00 95 1012.2
20260901215003 56 190 2.0 4.0 0.00 0.00 0.00 95 1012.3
20260901214503 56 193 2.0 4.0 0.00 0.00 0.00 95 1012.3
20260901214213 56 191 2.0 4.0 0.00 0.00 0.00 95 1012.3
20260901213503 56 181 2.0 4.0 0.00 0.00 0.00 95 1012.2
20260901213003 55 174 2.0 4.0 0.00 0.00 0.00 94 1012.2
20260901212503 55 173 2.0 3.0 0.00 0.00 0.00 94 1012.3
20260901212213 55 174 2.0 5.0 0.00 0.00 0.00 94 1012.2
20260901211503 55 172 2.0 5.0 0.00 0.00 0.00 94 1012.3
20260901211215 55 174 2.0 5.0 0.00 0.00 0.00 94 1012.2